VK4TOM-13 Weather Reports


time (UTC)temp
C
wind
direction
speed
KPH
gust
KPH
rain 1hr
cm
rain 24hr
cm
rain mn
cm
humidity
%
barometer
mb
20260505003805 25 71 0.0 4.8 0.00 0.00 0.00 70 1016.4
20260505002804 25 5 1.6 6.4 0.00 0.00 0.00 70 1016.4
20260505001803 25 63 1.6 4.8 0.00 0.00 0.00 70 1016.6
20260505000802 25 101 3.2 6.4 0.00 0.00 0.00 70 1016.5
20260504235801 25 60 0.0 6.4 0.00 0.00 0.00 70 1016.5
20260504234800 25 252 3.2 3.2 0.00 0.00 0.00 70 1016.9
20260504233759 25 88 6.4 6.4 0.00 0.00 0.00 70 1017.0
20260504232758 25 187 1.6 8.0 0.00 0.00 0.00 70 1017.0
20260504231757 24 132 6.4 8.0 0.00 0.00 0.00 70 1017.1
20260504230755 25 72 0.0 6.4 0.00 0.00 0.00 70 1016.9
20260504225755 25 59 3.2 11.3 0.00 0.00 0.00 70 1017.1
20260504225449 25 93 11.3 11.3 0.00 0.00 0.00 70 1017.1
20260504223915 23 135 1.6 6.4 0.00 0.00 0.00 70 1017.4
20260504222914 23 86 3.2 6.4 0.00 0.00 0.00 70 1017.3
20260504221913 23 89 0.0 6.4 0.00 0.00 0.00 70 1017.3
20260504220912 22 173 1.6 6.4 0.00 0.00 0.00 70 1017.4
20260504215911 22 183 3.2 4.8 0.00 0.00 0.00 70 1017.3
20260504214910 22 148 3.2 4.8 0.00 0.00 0.00 70 1017.2
20260504213909 21 199 1.6 4.8 0.00 0.00 0.00 70 1017.2
20260504212908 21 123 0.0 1.6 0.00 0.00 0.00 70 1017.2
20260504211907 20 154 0.0 1.6 0.00 0.00 0.00 70 1017.1
20260504210906 20 131 1.6 3.2 0.00 0.00 0.00 70 1016.8
20260504204904 20 45 0.0 0.0 0.00 0.00 0.00 70 1016.7
20260504203902 19 138 0.0 1.6 0.00 0.00 0.00 70 1016.6
20260504202901 19 85 0.0 1.6 0.00 0.00 0.00 70 1016.4
20260504201900 19 279 0.0 0.0 0.00 0.00 0.00 70 1016.4
20260504200859 18 135 0.0 0.0 0.00 0.00 0.00 70 1016.3
20260504195858 18 90 0.0 0.0 0.00 0.00 0.00 70 1016.3
20260504194857 18 135 0.0 0.0 0.00 0.00 0.00 70 1016.1
20260504193856 18 111 0.0 3.2 0.00 0.00 0.00 70 1016.0
20260504192855 18 135 0.0 0.0 0.00 0.00 0.00 70 1016.0
20260504191854 18 45 0.0 0.0 0.00 0.00 0.00 70 1015.8
20260504190853 18 57 0.0 0.0 0.00 0.00 0.00 70 1015.8
20260504185852 18 90 0.0 0.0 0.00 0.00 0.00 70 1015.7
20260504184851 18 45 0.0 0.0 0.00 0.00 0.00 70 1015.6
20260504183849 18 45 0.0 0.0 0.00 0.00 0.00 70 1015.4
20260504182848 18 45 0.0 0.0 0.00 0.00 0.00 70 1015.6
20260504181847 19 45 0.0 0.0 0.00 0.00 0.00 70 1015.5
20260504180846 19 45 0.0 0.0 0.00 0.00 0.00 70 1015.6
20260504175845 19 135 0.0 0.0 0.00 0.00 0.00 70 1015.5
20260504174844 19 45 0.0 0.0 0.00 0.00 0.00 70 1015.6
20260504173843 19 45 0.0 0.0 0.00 0.00 0.00 70 1015.5
20260504172842 19 45 0.0 0.0 0.00 0.00 0.00 70 1015.6
20260504171841 19 45 0.0 0.0 0.00 0.00 0.00 70 1015.6
20260504170840 19 45 0.0 0.0 0.00 0.00 0.00 70 1015.6
20260504150827 19 45 0.0 0.0 0.00 0.00 0.00 70 1016.3
20260504140823 20 226 0.0 0.0 0.00 0.00 0.00 70 1016.1
20260504130814 21 45 0.0 0.0 0.00 0.00 0.00 70 1016.6
20260504081743 23 45 0.0 0.0 0.00 0.00 0.00 70 1014.9
20260504080742 23 45 0.0 0.0 0.00 0.00 0.00 70 1014.8
20260504050723 31 68 1.6 3.2 0.00 0.00 0.00 70 1013.9
20260504045722 31 24 3.2 6.4 0.00 0.00 0.00 70 1013.8
20260504044721 32 58 3.2 3.2 0.00 0.00 0.00 70 1013.8
20260504043719 32 61 1.6 4.8 0.00 0.00 0.00 70 1013.9
20260504042718 32 25 3.2 8.0 0.00 0.00 0.00 70 1013.8
20260504041718 32 106 0.0 3.2 0.00 0.00 0.00 70 1013.8
20260504040717 32 82 3.2 4.8 0.00 0.00 0.00 70 1013.8
20260504035715 32 82 1.6 3.2 0.00 0.00 0.00 70 1014.0
20260504034714 32 58 0.0 1.6 0.00 0.00 0.00 70 1013.9
20260504033713 32 59 1.6 6.4 0.00 0.00 0.00 70 1014.1
20260504032712 32 87 0.0 6.4 0.00 0.00 0.00 70 1014.3
20260504031711 32 245 0.0 4.8 0.00 0.00 0.00 70 1014.3
20260504030710 32 138 1.6 6.4 0.00 0.00 0.00 70 1014.4
20260504025709 31 270 0.0 3.2 0.00 0.00 0.00 70 1014.6
20260504024708 31 275 1.6 4.8 0.00 0.00 0.00 70 1014.8
20260504020704 31 211 0.0 6.4 0.00 0.00 0.00 70 1015.7
20260504013700 30 50 0.0 4.8 0.00 0.00 0.00 70 1016.0
20260504010657 28 135 0.0 3.2 0.00 0.00 0.00 70 1016.5